Location: Sungai Bunut
(2.6333°N, 113.7333°E)
Time: 16:23:40
(UTC+00:00)

Vanguard 1 - Pass Details

Date: 08 December 2023
Orbit: 653 x 3826 km, 34.3° (Epoch: 25 February)

Event Time Altitude Azimuth Distance (km) Brightness Sun altitude
Rises 13:41:35 0° 315° (NW) 7,163 14.6 -47.4°
Reaches altitude 10° 13:47:10 10° 325° (NW) 6,481 14.2 -48.5°
Enters shadow 13:56:18 25° 347° (NNW) 5,615 13.6 -50.5°
